This is the latest recevied weather packets stored in our database for station/object OM8AGG-10. If no packets are shown the sender has not sent any weather packets the latest 10 day(s).
| Time | Temp. | Humidity | Pressure | Rain* | Wind** | Luminosity | Snow |
|---|---|---|---|---|---|---|---|
| 1777390450 | 25.56° C | 17% | 1019.6 hPa | - | - | - | - |
| 1777389550 | 26.67° C | 28% | 1019.8 hPa | - | - | - | - |
| 1777388650 | 26.67° C | 27% | 1019.9 hPa | - | - | - | - |
| 1777387750 | 26.67° C | 27% | 1019.9 hPa | - | - | - | - |
| 1777386850 | 26.67° C | 26% | 1019.8 hPa | - | - | - | - |
| 1777385050 | 26.67° C | 27% | 1020 hPa | - | - | - | - |
| 1777384150 | 26.67° C | 27% | 1020 hPa | - | - | - | - |
| 1777383250 | 26.67° C | 27% | 1019.9 hPa | - | - | - | - |
| 1777382349 | 26.67° C | 26% | 1020 hPa | - | - | - | - |
| 1777381449 | 26.67° C | 26% | 1020 hPa | - | - | - | - |
| 1777380550 | 26.67° C | 26% | 1020 hPa | - | - | - | - |
| 1777379649 | 26.11° C | 26% | 1019.8 hPa | - | - | - | - |
| 1777378054 | 26.11° C | 26% | 1019.9 hPa | - | - | - | - |
| 1777377154 | 26.11° C | 27% | 1019.7 hPa | - | - | - | - |
| 1777376254 | 29.44° C | 23% | 1019.7 hPa | - | - | - | - |
| 1777375977 | 26.67° C | 26% | 1019.7 hPa | - | - | - | - |
| 1777375677 | 26.11° C | 27% | 1019.7 hPa | - | - | - | - |
| 1777375112 | 27.78° C | 21% | 1019.4 hPa | - | - | - | - |
| 1777315940 | 26.11° C | 31% | 1020.7 hPa | - | - | - | - |
| 1777315040 | 26.11° C | 31% | 1020.6 hPa | - | - | - | - |
| 1777314140 | 25.56° C | 31% | 1020.4 hPa | - | - | - | - |
| 1777313240 | 25.56° C | 31% | 1020.3 hPa | - | - | - | - |
| 1777312340 | 25.56° C | 29% | 1020 hPa | - | - | - | - |
| 1777312280 | 25.56° C | 30% | 996.3 hPa | - | - | - | - |
| 1777311529 | 25.56° C | 30% | 996.2 hPa | - | - | - | - |
* Rain since midnight (hover to see other rain measurements)
** Current wind speed in m/s (hover to see current wind gust speed)